Weather History for Detroit Lakes, MN

Change the Weather History Date:

Thursday, December 27, 2012

  Actual Average Record
Temperature  
Mean Temperature 9 °F -  
Max Temperature 17 °F 19 °F 41 °F (2006)
Min Temperature 1 °F 0 °F -37 °F (1933)
Degree Days  
Heating Degree Days 56    
Moisture  
Dew Point 10 °F    
Average Humidity 87    
Maximum Humidity 93    
Minimum Humidity 73    
Precipitation  
Precipitation 0.01 in - - ()
Sea Level Pressure  
Sea Level Pressure 30.17 in    
Wind  
Wind Speed 4 mph (SE)    
Max Wind Speed 9 mph    
Max Gust Speed -    
Visibility 9 miles    
Events Snow    
Averages and records for this station are not official NWS values.
T = Trace of Precipitation, MM = Missing Value Source: NWS Daily Summary

Daily Weather History Graph

Daily Weather History Graph

Search for Another Location

Airport:

Trip Planner

Search our weather history database for the weather conditions in past years. The results will help you decide how hot, cold, wet, or windy it might be!

Date:

Astronomy

Dec. 27, 2012 Rise Set
Actual Time 8:08 AM CST 4:41 PM CST
Civil Twilight 7:32 AM CST 5:17 PM CST
Nautical Twilight 6:54 AM CST 5:55 PM CST
Astronomical Twilight 6:17 AM CST 6:32 PM CST
Moon 4:28 PM CST (12/27) 7:17 AM CST (12/27)
Length of Visible Light 9h 44m
Length of Day
8h 33m
Full, 100% of the Moon is Illuminated
Dec 27
Full
Dec 28
Full
Jan 4
Last Quarter
Jan 11
New
Jan 18
First Quarter

Hourly Weather History & Observations

Time (CST) Temp. Windchill Dew Point Humidity Pressure Visibility Wind Dir Wind Speed Gust Speed Precip Events Conditions
12:13 AM 1.4 °F - -0.4 °F 92% 30.23 in 10.0 mi Calm Calm - N/A   Scattered Clouds
12:33 AM 3.2 °F - 1.4 °F 92% 30.22 in 10.0 mi Calm Calm - N/A   Scattered Clouds
12:52 AM 5.0 °F - 3.2 °F 92% 30.22 in 10.0 mi Calm Calm - N/A Snow Light Snow
1:13 AM 5.0 °F - 3.2 °F 92% 30.22 in - Calm Calm - N/A   Unknown
1:33 AM 6.8 °F - 5.0 °F 92% 30.21 in - Calm Calm - N/A   Unknown
1:52 AM 6.8 °F - 5.0 °F 92% 30.21 in - Calm Calm - N/A   Unknown
2:13 AM 8.6 °F 2.0 °F 6.8 °F 92% 30.22 in - SSE 3.5 mph - N/A   Unknown
2:33 AM 8.6 °F 2.0 °F 5.0 °F 85% 30.21 in 10.0 mi SSE 3.5 mph - N/A Snow Light Snow
2:52 AM 8.6 °F 2.0 °F 5.0 °F 85% 30.21 in 10.0 mi SE 3.5 mph - N/A   Scattered Clouds
3:13 AM 8.6 °F - 5.0 °F 85% 30.21 in 10.0 mi Calm Calm - N/A   Scattered Clouds
3:52 AM 8.6 °F - 5.0 °F 85% 30.20 in 10.0 mi Calm Calm - N/A   Mostly Cloudy
4:13 AM 8.6 °F - 5.0 °F 85% 30.20 in - Calm Calm - N/A   Mostly Cloudy
4:32 AM 8.6 °F - 5.0 °F 85% 30.19 in - Calm Calm - N/A   Mostly Cloudy
4:52 AM 8.6 °F - 5.0 °F 85% 30.19 in - Calm Calm - N/A   Mostly Cloudy
5:13 AM 10.4 °F - 6.8 °F 85% 30.18 in - Calm Calm - N/A   Overcast
5:32 AM 10.4 °F 4.0 °F 8.6 °F 92% 30.18 in - SE 3.5 mph - N/A   Overcast
5:52 AM 10.4 °F 2.2 °F 8.6 °F 92% 30.19 in - SE 4.6 mph - N/A   Overcast
6:13 AM 10.4 °F -0.4 °F 8.6 °F 92% 30.18 in - SE 6.9 mph - N/A   Mostly Cloudy
6:32 AM 10.4 °F -0.4 °F 8.6 °F 92% 30.18 in 10.0 mi SE 6.9 mph - N/A   Mostly Cloudy
6:52 AM 10.4 °F -1.5 °F 8.6 °F 92% 30.18 in 10.0 mi SE 8.1 mph - N/A   Overcast
7:13 AM 10.4 °F -1.5 °F 8.6 °F 92% 30.18 in 10.0 mi SE 8.1 mph - N/A   Overcast
7:32 AM 10.4 °F -0.4 °F 8.6 °F 92% 30.18 in 10.0 mi SE 6.9 mph - N/A   Overcast
7:52 AM 10.4 °F -1.5 °F 8.6 °F 92% 30.18 in 10.0 mi SE 8.1 mph - N/A   Overcast
8:13 AM 10.4 °F -0.4 °F 8.6 °F 92% 30.19 in 10.0 mi SE 6.9 mph - N/A   Mostly Cloudy
8:32 AM 12.2 °F 1.7 °F 8.6 °F 85% 30.19 in 10.0 mi SE 6.9 mph - N/A   Mostly Cloudy
8:52 AM 12.2 °F 0.7 °F 8.6 °F 85% 30.20 in 10.0 mi SE 8.1 mph - N/A   Scattered Clouds
9:13 AM 12.2 °F 0.7 °F 8.6 °F 85% 30.20 in 10.0 mi SE 8.1 mph - N/A   Scattered Clouds
9:32 AM 12.2 °F 1.7 °F 8.6 °F 85% 30.21 in 10.0 mi SSE 6.9 mph - N/A   Clear
9:53 AM 12.2 °F 1.7 °F 8.6 °F 85% 30.21 in 10.0 mi SE 6.9 mph - N/A   Clear
10:12 AM 12.2 °F 0.7 °F 8.6 °F 85% 30.21 in 10.0 mi SE 8.1 mph - N/A   Clear
10:33 AM 12.2 °F 1.7 °F 8.6 °F 85% 30.21 in 10.0 mi SE 6.9 mph - N/A   Clear
10:53 AM 14.0 °F 3.9 °F 8.6 °F 79% 30.20 in 10.0 mi SE 6.9 mph - N/A   Clear
11:12 AM 14.0 °F 2.9 °F 8.6 °F 79% 30.19 in 10.0 mi SE 8.1 mph - N/A   Clear
11:33 AM 14.0 °F 3.9 °F 8.6 °F 79% 30.18 in 10.0 mi SE 6.9 mph - N/A   Clear
11:53 AM 14.0 °F 2.9 °F 8.6 °F 79% 30.17 in 10.0 mi SE 8.1 mph - N/A   Clear
12:12 PM 15.8 °F 4.2 °F 8.6 °F 73% 30.16 in 10.0 mi SE 9.2 mph - N/A   Clear
12:33 PM 15.8 °F 6.1 °F 8.6 °F 73% 30.15 in 10.0 mi SE 6.9 mph - N/A   Clear
12:53 PM 15.8 °F 5.1 °F 10.4 °F 79% 30.14 in 10.0 mi SSE 8.1 mph - N/A   Clear
1:12 PM 15.8 °F 6.1 °F 10.4 °F 79% 30.14 in 5.0 mi SE 6.9 mph - N/A   Haze
1:33 PM 17.6 °F 9.3 °F 10.4 °F 73% 30.14 in 10.0 mi SSE 5.8 mph - N/A   Scattered Clouds
1:53 PM 17.6 °F 8.2 °F 10.4 °F 73% 30.13 in 10.0 mi SE 6.9 mph - N/A   Scattered Clouds
2:12 PM 17.6 °F 7.3 °F 12.2 °F 79% 30.13 in 7.0 mi SE 8.1 mph - N/A   Scattered Clouds
2:33 PM 17.6 °F 8.2 °F 12.2 °F 79% 30.13 in 5.0 mi SE 6.9 mph - N/A Snow Light Snow
2:53 PM 17.6 °F 7.3 °F 12.2 °F 79% 30.13 in 5.0 mi SSE 8.1 mph - N/A   Haze
3:12 PM 17.6 °F 7.3 °F 14.0 °F 86% 30.13 in 5.0 mi SE 8.1 mph - N/A   Scattered Clouds
3:33 PM 17.6 °F 7.3 °F 14.0 °F 86% 30.13 in 10.0 mi SE 8.1 mph - N/A   Scattered Clouds
3:53 PM 17.6 °F 7.3 °F 14.0 °F 86% 30.13 in 3.0 mi SSE 8.1 mph - N/A Snow Light Snow
4:12 PM 17.6 °F 7.3 °F 14.0 °F 86% 30.13 in 4.0 mi SE 8.1 mph - N/A Snow Light Snow
4:33 PM 17.6 °F 8.2 °F 14.0 °F 86% 30.14 in 4.0 mi SE 6.9 mph - N/A Snow Light Snow
4:53 PM 17.6 °F 9.3 °F 14.0 °F 86% 30.14 in 3.0 mi SE 5.8 mph - N/A Snow Light Snow
5:12 PM 17.6 °F 9.3 °F 14.0 °F 86% 30.14 in - SE 5.8 mph - N/A   Unknown
5:33 PM 17.6 °F 10.7 °F 14.0 °F 86% 30.14 in - SE 4.6 mph - N/A   Overcast
5:53 PM 17.6 °F 9.3 °F 14.0 °F 86% 30.14 in - SE 5.8 mph - N/A   Overcast
6:33 PM 15.8 °F 7.2 °F 14.0 °F 93% 30.13 in - SE 5.8 mph - N/A   Unknown
6:53 PM 15.8 °F 7.2 °F 14.0 °F 93% 30.14 in - SE 5.8 mph - N/A   Unknown
7:12 PM 15.8 °F 7.2 °F 14.0 °F 93% 30.14 in - SE 5.8 mph - N/A   Unknown
7:33 PM 15.8 °F 7.2 °F 14.0 °F 93% 30.13 in - SE 5.8 mph - N/A   Unknown
7:52 PM 15.8 °F 7.2 °F 14.0 °F 93% 30.13 in - SE 5.8 mph - N/A   Unknown
8:13 PM 15.8 °F 7.2 °F 14.0 °F 93% 30.13 in - SSE 5.8 mph - N/A   Unknown
8:32 PM 15.8 °F 7.2 °F 14.0 °F 93% 30.13 in - SSE 5.8 mph - N/A   Unknown
8:52 PM 15.8 °F 7.2 °F 14.0 °F 93% 30.13 in - SSE 5.8 mph - N/A   Unknown
9:13 PM 15.8 °F 8.6 °F 14.0 °F 93% 30.13 in - SE 4.6 mph - N/A   Unknown
9:32 PM 15.8 °F 7.2 °F 14.0 °F 93% 30.12 in - SSE 5.8 mph - N/A   Unknown
9:52 PM 15.8 °F 8.6 °F 14.0 °F 93% 30.12 in - SSE 4.6 mph - N/A   Unknown
10:13 PM 17.6 °F 10.7 °F 14.0 °F 86% 30.12 in - SSE 4.6 mph - N/A   Overcast
10:32 PM 17.6 °F 10.7 °F 15.8 °F 93% 30.13 in - SSE 4.6 mph - N/A   Overcast
10:52 PM 17.6 °F 10.7 °F 15.8 °F 93% 30.13 in - SSE 4.6 mph - N/A   Overcast
11:33 PM 17.6 °F 10.7 °F 15.8 °F 93% 30.13 in - SSE 4.6 mph - N/A   Overcast
11:52 PM 17.6 °F 10.7 °F 15.8 °F 93% 30.13 in - SSE 4.6 mph - 0.01 in   Overcast